Location: Peebles
(55.6412°N, 3.1714°W)
Time: 15:28:14
(UTC+01:00)

Cosmos 1503 Rocket - Pass Details

Date: 26 September 2021
Orbit: 753 x 790 km, 74.0° (Epoch: 17 October)

Event Time Altitude Azimuth Distance (km) Brightness Sun altitude
Rises 20:13:45 0° 209° (SSW) 3,210 7.4 -11.1°
Reaches altitude 10° 20:16:07 10° 210° (SSW) 2,285 6.7 -11.4°
Maximum altitude 20:21:18 82° 299° (WNW) 769 4.1 -12.1°
Drops below altitude 10° 20:26:31 10° 27° (NNE) 2,290 6.4 -12.8°
Sets 20:28:53 0° 29° (NNE) 3,219 7.1 -13.1°
